Theta_e
302 297 295 297 300 301 299 297 297 300 304 297 296 295 298 300 300 297 297 297 296 303 311 315 320 322 324 325 325 325 325 326 326 326 323 324 324 325 324 325 326 325 324 322
295 292 299 302 300 298 299 297 297 303 301 299 294 296 299 300 302 300 299 298 299 298 306 313 316 319 321 324 326 326 325 324 325 326 326 325 324 324 326 325 325 325 324 323
293 295 299 299 298 296 297 298 299 300 294 291 289 291 293 297 299 301 301 302 303 301 301 311 315 317 321 322 324 325 326 326 325 326 325 323 323 321 320 322 324 325 325 324
294 298 298 298 297 298 293 302 301 294 292 287 292 284 290 295 297 300 302 303 302 302 301 306 314 316 319 321 324 325 326 327 327 327 325 324 323 322 324 323 325 325 326 325
292 293 295 294 296 300 296 301 301 295 291 287 287 282 286 291 294 297 300 302 302 303 301 301 309 315 318 321 321 324 325 327 328 328 327 326 324 325 323 322 323 324 326 326
294 300 298 298 300 301 303 299 294 293 290 283 288 285 285 290 294 295 298 300 302 302 302 300 302 314 317 320 320 322 323 325 327 328 328 326 325 324 322 323 323 324 326 325
294 295 299 301 295 301 299 293 282 282 281 281 287 286 290 294 297 297 297 296 296 298 299 300 298 307 314 314 318 319 321 323 325 326 327 327 327 325 323 323 324 324 325 325
287 284 294 299 297 295 295 292 283 278 278 280 282 281 286 296 302 303 297 294 293 294 296 297 298 300 309 313 317 319 320 322 323 325 326 328 327 326 326 325 326 325 326 326
286 286 296 297 299 299 292 290 294 283 274 277 281 284 290 294 294 292 293 294 293 294 295 295 297 297 298 306 313 317 318 320 320 322 325 326 327 327 326 326 326 326 326 326
291 283 293 293 297 297 296 296 288 285 274 273 278 280 285 289 292 293 292 292 293 293 294 295 294 297 297 298 301 305 311 317 315 315 319 323 325 326 327 322 323 325 325 322
294 288 287 292 291 291 289 291 291 290 283 278 276 281 289 291 292 291 291 293 293 293 293 294 294 295 296 296 297 298 299 300 300 303 308 314 319 318 320 323 321 320 319 324
295 288 284 287 292 296 295 292 293 287 282 280 281 281 290 289 291 292 291 292 291 291 293 293 294 296 297 297 298 298 298 297 297 298 301 306 310 312 314 315 316 318 322 321
294 286 280 282 288 290 290 291 294 291 285 281 279 282 289 288 288 288 290 291 291 291 292 294 296 297 298 299 299 299 299 299 299 301 304 306 308 310 312 312 313 314 318 318
297 286 283 281 285 288 287 290 292 292 282 281 285 284 285 288 289 289 290 291 292 292 293 294 295 297 297 298 299 300 300 301 301 302 304 306 307 308 309 309 311 312 314 313
294 284 286 286 287 289 289 289 290 289 291 285 288 287 289 288 289 289 291 292 292 292 293 293 294 295 296 297 299 300 301 302 302 301 301 302 304 305 305 305 305 307 308 311
296 285 287 285 287 288 285 289 291 290 291 291 288 286 292 290 289 288 290 291 291 291 292 293 293 294 295 296 297 299 301 301 301 301 300 300 300 300 300 299 298 297 298 304
290 286 284 280 283 284 280 286 289 291 292 292 288 293 294 292 292 292 291 290 291 292 292 292 292 293 294 296 297 297 299 301 300 300 300 299 299 297 296 295 293 293 293 293
287 287 286 283 283 276 286 291 292 291 293 294 294 295 296 296 296 293 293 292 292 291 293 293 292 292 293 293 296 297 298 299 298 297 296 295 294 294 294 294 293 293 293 293
295 289 283 279 280 282 285 287 288 287 288 294 294 296 294 293 289 292 293 293 294 294 293 293 293 293 293 293 294 296 294 294 294 293 292 292 292 290 290 288 289 287 288 287
293 293 287 282 278 275 285 289 291 290 284 294 294 294 293 290 287 293 294 294 292 291 291 291 291 290 291 288 291 292 290 290 291 290 291 291 289 292 291 290 289 286 286 287
283 284 282 283 281 281 287 289 293 282 285 292 294 294 293 291 295 296 292 290 289 289 289 288 287 286 285 284 286 288 287 287 287 288 288 285 289 290 291 290 287 287 287 286
283 282 282 283 281 278 289 289 287 291 288 287 289 291 292 293 291 290 289 288 287 286 285 285 283 282 282 282 285 285 284 283 284 287 286 286 286 286 286 287 286 286 287 286
282 286 283 286 286 288 286 289 290 290 290 288 288 289 291 289 287 288 286 285 284 283 283 283 282 281 280 281 282 282 282 283 284 286 286 286 286 286 286 287 286 285 286 286
286 289 285 286 288 286 288 286 288 289 288 289 288 288 288 288 287 284 283 282 282 282 281 281 280 279 278 278 279 279 281 283 286 286 285 285 286 285 285 285 286 286 286 286
285 288 284 284 285 286 287 286 288 288 287 287 286 286 286 286 284 283 282 281 280 279 279 279 278 277 275 275 275 276 278 283 284 284 283 284 284 285 284 284 285 285 285 287
277 280 286 284 280 282 283 283 284 285 285 284 285 284 283 284 282 281 279 279 278 276 275 274 273 272 271 271 271 273 276 281 284 282 282 282 283 282 283 283 283 287 288 289
Wind_Speed
1 5 13 10 15 13 13 15 8 10 7 7 13 13 17 10 7 8 9 9 10 14 16 16 17 15 14 13 15 17 16 16 12 11 9 9 9 7 6 6 7 9 9 9
4 10 10 4 13 14 11 15 17 7 6 9 6 17 13 9 10 10 13 11 12 7 9 15 15 16 17 19 18 16 16 15 13 10 9 6 6 5 7 5 5 6 9 11
10 2 10 8 8 15 16 13 13 9 4 3 2 12 9 10 13 11 12 14 14 14 11 15 16 19 17 18 19 17 16 15 13 11 8 2 3 2 4 5 6 9 10 11
6 9 12 11 11 11 19 14 16 9 6 6 8 8 5 7 14 15 20 17 14 15 10 14 17 18 17 17 16 18 16 16 15 16 13 15 10 11 9 8 7 8 11 12
9 16 11 10 7 11 7 13 13 4 5 3 4 1 8 7 7 12 18 17 13 14 12 14 16 18 17 15 16 18 17 15 15 16 15 13 13 10 6 5 9 10 11 11
6 8 9 7 8 12 5 8 6 4 3 5 8 7 7 6 8 6 7 14 17 13 11 11 10 13 16 13 13 13 16 16 14 17 18 19 18 12 8 10 10 9 9 9
9 9 4 6 8 7 8 2 1 1 2 7 6 10 12 9 9 9 8 10 11 10 11 10 10 10 12 12 14 12 15 16 15 17 18 18 18 16 16 13 11 11 9 9
13 9 19 15 10 12 20 9 4 5 4 4 2 10 8 16 21 15 7 4 6 7 8 9 10 10 13 13 15 15 15 16 15 16 17 17 17 11 12 14 11 10 10 10
11 10 21 14 8 15 10 11 8 4 3 2 6 7 9 13 11 5 7 8 10 8 7 7 8 9 10 11 14 15 14 15 12 17 16 15 15 16 14 14 12 10 11 9
8 4 16 5 2 2 14 9 6 1 2 5 6 5 8 6 13 9 8 9 9 7 7 6 6 7 6 6 5 6 8 13 9 7 8 11 13 13 14 8 11 12 10 8
9 4 9 12 7 17 6 12 9 6 6 5 2 8 9 11 6 9 9 8 7 7 5 5 6 5 6 5 6 7 8 7 6 7 6 7 8 8 8 10 8 7 7 9
9 3 13 25 6 14 14 13 19 7 8 4 3 8 3 8 7 9 8 7 5 3 3 2 5 6 6 5 3 4 5 7 7 7 7 7 6 6 7 6 7 7 8 6
6 2 6 6 9 7 14 12 22 7 3 9 6 7 2 1 3 3 7 6 5 5 5 4 6 6 6 6 6 6 6 7 6 6 7 6 7 7 7 6 6 6 6 6
11 5 7 15 31 9 21 25 20 22 3 4 16 4 4 6 7 7 5 5 6 6 6 4 5 6 6 6 7 6 6 6 6 6 6 7 7 6 6 6 6 6 6 7
3 7 8 8 6 16 16 25 26 18 29 12 16 15 8 10 10 7 6 6 6 6 6 7 7 7 7 7 7 6 6 7 6 6 6 6 5 5 5 6 7 7 7 6
20 4 11 13 9 22 11 26 26 21 24 28 9 9 6 4 7 7 9 9 8 7 8 8 8 8 9 9 8 7 7 8 7 7 7 6 6 6 7 7 7 6 5 5
9 10 8 8 4 9 3 28 31 35 27 30 22 29 7 8 12 11 10 9 9 8 9 9 10 10 6 8 8 9 8 6 7 8 8 7 7 7 6 5 4 4 3 1
12 8 6 4 6 9 10 15 22 32 30 29 27 15 17 15 11 9 9 9 9 8 10 11 6 4 7 5 7 6 7 7 6 6 7 6 5 5 4 3 2 2 3 4
21 16 5 6 10 4 7 11 29 21 25 26 33 27 9 7 1 9 8 8 9 10 5 2 3 4 1 0 3 5 6 6 7 8 6 5 5 5 5 4 4 3 3 4
13 17 11 6 7 11 8 9 11 8 23 22 24 22 15 10 11 11 10 6 6 7 4 4 5 6 7 7 4 4 4 4 5 4 6 7 6 7 7 6 6 3 2 4
7 6 11 6 5 10 6 8 20 13 16 13 22 19 18 18 19 11 8 6 5 5 6 5 8 7 5 5 3 4 3 2 4 3 3 4 6 7 7 6 4 4 4 3
9 10 6 4 4 15 9 13 23 13 2 3 5 11 13 11 9 8 8 8 7 7 6 7 7 6 6 6 4 6 6 6 6 4 2 1 1 1 1 4 3 3 4 4
5 9 10 14 14 2 3 5 2 0 6 3 5 3 9 9 7 9 8 7 6 6 6 5 7 6 7 8 7 7 5 5 1 2 2 3 3 4 4 5 4 2 4 4
5 6 4 4 8 3 6 2 2 4 2 5 3 5 6 9 9 9 8 7 5 5 5 6 8 9 8 8 8 6 5 4 2 3 3 2 4 4 4 3 3 3 3 3
4 9 5 4 3 4 6 6 8 2 4 6 5 4 6 13 9 8 8 7 7 7 7 7 8 8 8 6 7 6 6 4 4 4 4 4 3 4 5 4 2 4 2 3
4 3 9 6 4 3 3 7 8 2 3 3 5 4 6 8 12 11 9 7 8 8 7 9 8 7 6 6 7 7 7 5 3 5 4 3 3 3 4 4 4 12 7 7
Wind_Direction
243 161 186 195 199 222 191 205 213 216 239 179 212 227 243 251 268 241 226 228 214 215 214 190 191 185 185 183 183 184 182 187 183 191 190 200 206 200 195 191 194 192 189 189
129 200 154 218 223 235 259 200 213 234 198 181 215 246 246 222 230 222 222 223 225 207 200 198 185 180 185 190 189 187 188 183 188 189 197 201 179 196 198 194 198 201 192 190
184 112 172 193 219 229 245 244 207 207 189 308 48 275 232 233 221 227 223 223 224 217 194 201 194 194 191 191 191 192 188 185 186 184 187 162 123 108 162 195 214 217 198 196
172 156 159 159 223 208 239 236 251 150 163 210 160 275 271 227 231 222 227 219 217 216 206 197 201 199 196 196 186 191 190 189 190 183 190 196 199 199 205 204 207 211 202 197
173 169 172 158 178 180 229 349 272 203 154 102 216 153 267 265 237 228 228 230 224 218 209 206 200 198 197 188 184 189 189 192 193 191 189 192 207 209 194 177 201 204 209 202
144 167 183 195 144 179 263 323 2 11 64 257 206 173 253 218 218 234 224 221 222 218 215 214 196 193 194 191 188 187 189 199 191 190 194 195 203 196 187 198 204 208 204 202
162 174 152 147 137 196 183 171 59 121 189 241 242 200 245 240 252 228 230 235 227 224 221 209 189 186 192 180 182 184 189 200 194 194 198 201 203 199 202 197 202 196 199 203
163 187 181 190 189 170 177 162 176 160 200 232 282 228 251 226 238 251 224 212 184 175 208 211 207 194 189 190 189 189 191 202 196 198 203 205 202 202 208 208 204 207 206 207
175 228 177 191 197 155 161 190 202 109 57 64 228 290 300 262 253 244 228 198 192 202 204 213 220 202 196 194 195 191 193 206 198 204 208 207 205 208 210 210 205 203 205 205
196 114 186 181 120 213 181 144 186 356 212 247 272 263 243 279 243 233 208 215 223 230 236 227 206 204 206 195 177 171 190 201 196 190 199 207 209 210 212 189 199 205 200 190
199 119 165 150 186 178 162 180 202 167 170 195 235 254 225 246 237 208 202 223 227 238 232 234 212 197 166 147 167 183 188 199 199 198 200 205 208 199 194 203 199 188 176 189
207 111 161 189 183 217 200 200 192 181 221 227 156 269 261 264 231 172 170 173 156 173 200 253 182 159 164 160 156 197 198 206 214 211 207 215 204 192 189 191 187 178 189 179
136 194 115 134 223 327 210 204 204 193 114 206 153 253 334 148 114 134 142 147 154 163 155 138 140 166 178 183 190 203 215 224 215 200 198 193 190 184 189 181 178 179 180 183
134 179 197 191 199 142 197 208 210 213 183 186 224 201 211 225 193 214 251 185 159 169 169 176 183 201 199 196 193 201 213 206 202 200 195 194 193 185 179 177 187 188 185 185
175 175 224 247 217 187 199 204 206 208 225 201 229 219 226 213 210 209 178 152 150 168 183 198 208 207 206 203 204 201 202 197 190 191 199 210 199 192 187 191 203 207 192 192
205 221 177 221 212 194 187 200 209 218 228 235 209 238 216 212 175 165 179 176 181 186 197 205 208 208 213 204 201 199 202 196 178 184 197 190 192 191 201 207 205 196 200 187
195 172 174 210 186 139 213 200 199 211 222 223 220 227 203 206 225 216 215 201 196 195 201 203 209 209 207 207 201 201 201 185 186 186 195 192 190 192 195 183 157 155 151 127
166 177 185 199 113 205 231 204 209 213 218 225 232 227 211 225 230 218 223 192 208 205 217 226 222 196 214 219 209 194 187 186 192 211 201 191 178 177 157 144 172 166 168 193
198 178 156 166 193 303 259 227 198 189 233 227 230 229 212 207 180 257 221 204 213 203 198 196 229 235 279 11 216 187 196 187 191 210 207 189 177 163 148 152 176 183 162 169
203 203 204 159 170 201 236 157 146 73 267 221 227 225 198 158 207 226 204 204 108 89 76 95 79 60 68 11 5 172 200 208 227 179 196 193 184 178 183 179 182 168 166 202
169 177 193 180 196 268 211 165 139 151 248 199 209 207 198 208 221 219 109 77 93 95 79 71 65 72 40 353 17 85 95 53 324 258 218 185 194 183 183 180 166 162 172 153
171 164 180 169 135 258 162 150 173 202 242 154 159 194 200 197 135 127 106 110 104 96 73 79 86 63 24 10 51 76 56 346 349 26 64 139 116 46 109 146 113 122 141 140
233 201 178 190 210 156 263 225 265 178 158 127 90 99 140 130 145 136 126 112 106 111 105 93 100 89 44 33 34 63 2 349 1 105 99 98 104 117 129 134 145 124 146 150
214 232 164 98 245 202 158 52 53 11 112 103 96 114 113 126 132 117 112 121 109 87 85 84 81 73 57 35 40 34 351 328 16 65 74 90 114 113 111 102 132 135 155 155
163 154 184 264 333 56 63 36 339 15 69 95 63 48 122 121 116 116 119 117 107 96 80 82 88 85 67 45 45 23 2 348 50 50 49 53 67 99 98 77 108 124 118 140
355 100 202 236 45 337 42 349 334 8 41 85 102 72 44 92 108 104 89 87 93 91 84 86 77 74 49 38 37 14 8 24 62 68 56 60 66 56 62 83 73 50 77 91